638  
ASUS46 KEKA 241215  
RWREKA  
EUREKA AREA WEATHER ROUNDUP  
NATIONAL WEATHER SERVICE EUREKA CA  
500 AM PDT SAT JUN 24 2017  
 
NOTE: "FAIR" INDICATES FEW OR NO CLOUDS BELOW 12,000 FEET WITH NO  
SIGNIFICANT WEATHER AND/OR S TO VISIBILITY
.  
 
SOUTHWEST OREGON...  
 
CITY SKY/WX TMP DP RH WIND PRES REMARKS
 
MEDFORD CLEAR 65 54 67 CALM 30.00S  
KLAMATH FALLS CLEAR 61 42 49 N9 30.19R  
NORTH BEND CLEAR 52 50 93 W7 29.95S  
ROSEBURG CLEAR 62 55 77 CALM 29.98S  
SEXTON SUMMIT CLEAR 71 41 33 E7 30.12S  
BROOKINGS CLOUDY 51 50 96 SE3 29.96S FOG  
 
NORTHWEST CALIFORNIA...  
 
CITY SKY/WX TMP DP RH WIND PRES REMARKS
 
CRESCENT CITY CLOUDY 50 50 100 SE3 29.96S FOG  
MCKINLEYVILLE FOG 51 51 100 CALM 29.95F VSB 1/4  
EUREKA FOG 51 50 97 CALM 29.95F VSB 1  
FORTUNA N/A 48 48 100 CALM 29.94F VSB 1/2  
WEAVERVILLE NOT AVBL  
TRINITY CENTER N/A 61 48 63 W5 30.05S  
UKIAH CLEAR 61 55 81 SE3 29.92S  
 
NORTH & CENTRAL CALIFORNIA...  
 
CITY SKY/WX TMP DP RH WIND PRES REMARKS
 
YREKA CLEAR 59 42 53 CALM 30.08R  
MOUNT SHASTA CLEAR 53 46 77 CALM 30.11S  
REDDING CLEAR 75 60 59 CALM 29.86S  
RED BLUFF CLEAR 73 58 59 NW5 29.86S  
CHICO N/A 77 63 61 N5 29.85S  
YUBA CITY CLEAR 68 58 70 SE6 29.85R  
SACRAMENTO CLEAR 61 56 83 S6 29.85S  
SANTA ROSA CLOUDY 56 54 93 CALM 29.91F  
NAPA PTCLDY 58 54 86 W13 29.92R  
SAN FRANCISCO MOCLDY 58 54 86 W12 29.93S  
OAKLAND CLOUDY 60 56 86 NW8 29.94S  
SALINAS CLOUDY 57 57 100 W7 29.95R FOG  
MONTEREY CLOUDY 57 56 96 W3 29.96R  
 

 
 
 
CLICK HERE TO GO TO PREVIOUS BULLETINS.

The Nexlab CA Page Main Text Page